Previsão horária em Al Khafji

Hoje, 26 Janeiro, Terça-feira

Tempo Temperatura Precipitação Vento Pressão Humidade
00:00 +14°C° 0 mm 1 m/s 765 mmHg 26%
01:00 +14°C° 0 mm 1 m/s 765 mmHg 25%
02:00 +14°C° 0 mm 1 m/s 765 mmHg 25%
03:00 +14°C° 0 mm 1 m/s 764 mmHg 25%
04:00 +14°C° 0 mm 1 m/s 765 mmHg 25%
05:00 +13°C° 0 mm 1 m/s 765 mmHg 26%
06:00 +13°C° 0 mm 1 m/s 765 mmHg 26%
07:00 +15°C° 0 mm 1 m/s 765 mmHg 23%
08:00 +16°C° 0 mm 2 m/s 766 mmHg 20%
09:00 +18°C° 0 mm 2 m/s 766 mmHg 16%
10:00 +19°C° 0 mm 2 m/s 766 mmHg 16%
11:00 +20°C° 0 mm 2 m/s 765 mmHg 15%
12:00 +21°C° 0 mm 2 m/s 765 mmHg 14%
13:00 +23°C° 0 mm 2 m/s 764 mmHg 14%
14:00 +22°C° 0 mm 3 m/s 764 mmHg 15%
15:00 +24°C° 0 mm 3 m/s 764 mmHg 16%
16:00 +21°C° 0 mm 3 m/s 764 mmHg 20%
17:00 +20°C° 0 mm 2 m/s 764 mmHg 24%
18:00 +18°C° 0 mm 2 m/s 764 mmHg 28%
19:00 +19°C° 0 mm 1 m/s 764 mmHg 28%
20:00 +18°C° 0 mm 1 m/s 764 mmHg 29%
21:00 +15°C° 0 mm 0 m/s 764 mmHg 30%
22:00 +15°C° 0 mm 0 m/s 764 mmHg 29%
23:00 +16°C° 0 mm 1 m/s 764 mmHg 29%

Amanhã, 27 Janeiro, Quarta-feira

Tempo Temperatura Precipitação Vento Pressão Humidade
00:00 +15°C° 0 mm 1 m/s 764 mmHg 28%
01:00 +15°C° 0 mm 1 m/s 764 mmHg 27%
02:00 +15°C° 0 mm 2 m/s 764 mmHg 26%
03:00 +15°C° 0 mm 2 m/s 764 mmHg 26%
04:00 +15°C° 0 mm 2 m/s 764 mmHg 25%
05:00 +15°C° 0 mm 2 m/s 764 mmHg 25%
06:00 +15°C° 0 mm 2 m/s 764 mmHg 25%
07:00 +16°C° 0 mm 2 m/s 764 mmHg 23%
08:00 +17°C° 0 mm 2 m/s 765 mmHg 21%
09:00 +19°C° 0 mm 2 m/s 765 mmHg 19%
10:00 +20°C° 0 mm 2 m/s 765 mmHg 18%
11:00 +22°C° 0 mm 1 m/s 764 mmHg 17%
12:00 +23°C° 0 mm 1 m/s 764 mmHg 16%
13:00 +24°C° 0 mm 1 m/s 764 mmHg 17%
14:00 +24°C° 0 mm 2 m/s 763 mmHg 17%
15:00 +25°C° 0 mm 2 m/s 763 mmHg 17%
16:00 +23°C° 0 mm 2 m/s 763 mmHg 21%
17:00 +21°C° 0 mm 2 m/s 763 mmHg 25%
18:00 +19°C° 0 mm 2 m/s 763 mmHg 29%
19:00 +19°C° 0 mm 2 m/s 763 mmHg 30%
20:00 +19°C° 0 mm 2 m/s 763 mmHg 32%
21:00 +18°C° 0 mm 2 m/s 763 mmHg 33%
22:00 +18°C° 0 mm 2 m/s 763 mmHg 34%
23:00 +18°C° 0 mm 3 m/s 763 mmHg 36%

Depois de amanhã, 28 Janeiro, Quinta-feira

Tempo Temperatura Precipitação Vento Pressão Humidade
00:00 +17°C° 0 mm 3 m/s 763 mmHg 37%
01:00 +17°C° 0 mm 3 m/s 763 mmHg 39%
02:00 +17°C° 0 mm 3 m/s 762 mmHg 40%
03:00 +17°C° 0 mm 3 m/s 762 mmHg 41%
04:00 +17°C° 0 mm 3 m/s 762 mmHg 42%
05:00 +15°C° 0 mm 4 m/s 762 mmHg 43%
06:00 +15°C° 0 mm 4 m/s 762 mmHg 44%
07:00 +17°C° 0 mm 4 m/s 762 mmHg 41%
08:00 +18°C° 0 mm 4 m/s 763 mmHg 38%
09:00 +20°C° 0 mm 5 m/s 763 mmHg 34%
10:00 +21°C° 0 mm 5 m/s 763 mmHg 32%
11:00 +23°C° 0 mm 5 m/s 762 mmHg 29%
12:00 +26°C° 0 mm 5 m/s 762 mmHg 26%
13:00 +27°C° 0 mm 6 m/s 761 mmHg 25%
14:00 +27°C° 0 mm 6 m/s 761 mmHg 24%
15:00 +28°C° 0 mm 6 m/s 760 mmHg 23%
16:00 +26°C° 0 mm 7 m/s 760 mmHg 30%
17:00 +23°C° 0 mm 7 m/s 760 mmHg 37%
18:00 +21°C° 0 mm 7 m/s 760 mmHg 44%
19:00 +21°C° 0 mm 7 m/s 761 mmHg 46%
20:00 +21°C° 0 mm 7 m/s 761 mmHg 48%
21:00 +21°C° 0 mm 7 m/s 761 mmHg 50%
22:00 +20°C° 0 mm 7 m/s 761 mmHg 48%
23:00 +20°C° 0 mm 7 m/s 761 mmHg 47%

29 Janeiro, Sexta-feira

Tempo Temperatura Precipitação Vento Pressão Humidade
00:00 +20°C° 0 mm 6 m/s 761 mmHg 45%
01:00 +19°C° 0 mm 6 m/s 760 mmHg 41%
02:00 +19°C° 0 mm 6 m/s 760 mmHg 37%
03:00 +17°C° 0 mm 6 m/s 760 mmHg 33%
04:00 +17°C° 0 mm 6 m/s 760 mmHg 34%
05:00 +17°C° 0 mm 6 m/s 760 mmHg 35%
06:00 +16°C° 0 mm 6 m/s 760 mmHg 36%
07:00 +18°C° 0 mm 7 m/s 761 mmHg 33%
08:00 +20°C° 0 mm 7 m/s 761 mmHg 30%
09:00 +21°C° 0 mm 8 m/s 761 mmHg 27%
10:00 +23°C° 0 mm 8 m/s 760 mmHg 24%
11:00 +26°C° 0 mm 9 m/s 760 mmHg 22%
12:00 +28°C° 0 mm 9 m/s 759 mmHg 20%
13:00 +29°C° 0 mm 9 m/s 759 mmHg 19%
14:00 +31°C° 0 mm 9 m/s 758 mmHg 18%
15:00 +32°C° 0 mm 9 m/s 757 mmHg 16%
16:00 +29°C° 0 mm 9 m/s 757 mmHg 24%
17:00 +27°C° 0 mm 10 m/s 757 mmHg 31%
18:00 +24°C° 0 mm 10 m/s 757 mmHg 38%
19:00 +23°C° 0 mm 8 m/s 758 mmHg 38%
20:00 +22°C° 0 mm 6 m/s 758 mmHg 38%
21:00 +22°C° 0 mm 4 m/s 758 mmHg 38%
22:00 +21°C° 0 mm 4 m/s 758 mmHg 40%
23:00 +21°C° 0 mm 3 m/s 759 mmHg 42%

30 Janeiro, Sábado

Tempo Temperatura Precipitação Vento Pressão Humidade
00:00 +21°C° 0 mm 2 m/s 759 mmHg 44%
01:00 +21°C° 0 mm 4 m/s 759 mmHg 40%
02:00 +20°C° 0 mm 6 m/s 759 mmHg 36%
03:00 +20°C° 0 mm 8 m/s 760 mmHg 31%
04:00 +20°C° 0 mm 8 m/s 760 mmHg 33%
05:00 +18°C° 0 mm 7 m/s 760 mmHg 34%
06:00 +18°C° 0 mm 7 m/s 761 mmHg 35%
07:00 +18°C° 0 mm 8 m/s 761 mmHg 35%
08:00 +18°C° 0 mm 8 m/s 762 mmHg 35%
09:00 +18°C° 0 mm 9 m/s 763 mmHg 35%
10:00 +18°C° 0 mm 9 m/s 763 mmHg 34%
11:00 +20°C° 0 mm 8 m/s 763 mmHg 32%
12:00 +21°C° 0 mm 8 m/s 763 mmHg 31%
13:00 +21°C° 0 mm 8 m/s 763 mmHg 29%
14:00 +21°C° 0 mm 7 m/s 762 mmHg 26%
15:00 +21°C° 0 mm 6 m/s 762 mmHg 24%
16:00 +20°C° 0 mm 6 m/s 763 mmHg 26%
17:00 +19°C° 0 mm 6 m/s 763 mmHg 27%
18:00 +17°C° 0 mm 6 m/s 763 mmHg 29%
19:00 +16°C° 0 mm 6 m/s 764 mmHg 31%
20:00 +16°C° 0 mm 6 m/s 765 mmHg 34%
21:00 +15°C° 0 mm 6 m/s 765 mmHg 37%
22:00 +14°C° 0 mm 6 m/s 765 mmHg 38%
23:00 +14°C° 0 mm 7 m/s 765 mmHg 40%

31 Janeiro, Domingo

Tempo Temperatura Precipitação Vento Pressão Humidade
00:00 +12°C° 0 mm 7 m/s 765 mmHg 41%
01:00 +12°C° 0 mm 7 m/s 765 mmHg 42%
02:00 +12°C° 0 mm 7 m/s 765 mmHg 44%
03:00 +11°C° 0 mm 7 m/s 765 mmHg 45%
04:00 +11°C° 0 mm 6 m/s 766 mmHg 46%
05:00 +10°C° 0 mm 6 m/s 766 mmHg 47%
06:00 +10°C° 0 mm 6 m/s 766 mmHg 49%
07:00 +11°C° 0 mm 6 m/s 766 mmHg 46%
08:00 +13°C° 0 mm 6 m/s 766 mmHg 43%
09:00 +14°C° 0 mm 6 m/s 767 mmHg 41%
10:00 +15°C° 0 mm 6 m/s 767 mmHg 37%
11:00 +16°C° 0 mm 6 m/s 766 mmHg 34%
12:00 +17°C° 0 mm 6 m/s 766 mmHg 31%
13:00 +19°C° 0 mm 6 m/s 766 mmHg 28%
14:00 +19°C° 0 mm 6 m/s 766 mmHg 26%
15:00 +20°C° 0 mm 6 m/s 765 mmHg 23%
16:00 +19°C° 0 mm 5 m/s 765 mmHg 24%
17:00 +18°C° 0 mm 4 m/s 766 mmHg 26%
18:00 +17°C° 0 mm 4 m/s 766 mmHg 28%
19:00 +17°C° 0 mm 4 m/s 766 mmHg 28%
20:00 +15°C° 0 mm 4 m/s 766 mmHg 29%
21:00 +15°C° 0 mm 4 m/s 767 mmHg 29%
22:00 +14°C° 0 mm 4 m/s 767 mmHg 31%
23:00 +14°C° 0 mm 4 m/s 767 mmHg 32%
Mostrar mais

Necessitamos do seu Consentimento

A Meteoprog e os seus Fornecedores de Serviços podem armazenar e aceder a dados pessoais como cookies, identificadores do dispositivo ou outras tecnologias semelhantes existentes no seu dispositivo e processar estes dados para personalizar conteúdos e anúncios, assim como funcionalidades nas redes sociais e análise de tráfego.

  • Armazenar e/ou aceder a informações no seu dispositivo

    Os cookies, identificadores do dispositivo ou outras informações podem ser armazenados ou acedidos no seu dispositivo, para os fins acima indicados.

  • Anúncios e conteúdos personalizados, medição de anúncios e conteúdos, dados sobre o público-alvo e desenvolvimento de produtos

    Os anúncios e os conteúdos podem ser personalizados com base num perfil. Podem ser adicionados dados adicionais para uma maior personalização dos anúncios e dos conteúdos. A eficácia dos anúncios e dos conteúdos pode ser medida. Podem ser obtidas informações sobre o público que visualizou os anúncios e os conteúdos. Estes dados podem ser usados para desenvolver ou melhorar sistemas, softwares ou a experiência do utilizador.

Ao clicar em "Eu concordo”, permitirá o uso de cookies, identificadores do dispositivo e web beacons mencionados ou outras tecnologias semelhantes. As configurações do navegador do seu dispositivo podem ser alteradas.

Para certos fins, podem ser invocados interesses legítimos ao invés de consentimento. Pode ler mais informação sobre este assunto na nossa Política de Privacidade e Cookies.